Year,Month,Day,Hour,Minute,Value (Times are PST for temperature in C)
2019,08,06,00,00,20.10
2019,08,06,00,01,20.10
2019,08,06,00,02,20.10
2019,08,06,00,03,20.00
2019,08,06,00,04,20.00
2019,08,06,00,05,19.90
2019,08,06,00,06,19.90
2019,08,06,00,07,19.80
2019,08,06,00,08,19.80
2019,08,06,00,09,19.80
2019,08,06,00,10,19.70
2019,08,06,00,11,19.70
2019,08,06,00,12,19.70
2019,08,06,00,13,19.70
2019,08,06,00,14,19.70
2019,08,06,00,15,19.60
2019,08,06,00,16,19.60
2019,08,06,00,17,19.60
2019,08,06,00,18,19.50
2019,08,06,00,19,19.50
2019,08,06,00,20,19.40
2019,08,06,00,21,19.40
2019,08,06,00,22,19.30
2019,08,06,00,23,19.30
2019,08,06,00,24,19.30
2019,08,06,00,25,19.20
2019,08,06,00,26,19.20
2019,08,06,00,27,19.20
2019,08,06,00,28,19.10
2019,08,06,00,29,19.10
2019,08,06,00,30,19.00
2019,08,06,00,31,19.00
2019,08,06,00,32,18.90
2019,08,06,00,33,18.90
2019,08,06,00,34,18.90
2019,08,06,00,35,18.80
2019,08,06,00,36,18.80
2019,08,06,00,37,18.80
2019,08,06,00,38,18.80
2019,08,06,00,39,18.70
2019,08,06,00,40,18.70
2019,08,06,00,41,18.70
2019,08,06,00,42,18.70
2019,08,06,00,43,18.60
2019,08,06,00,44,18.60
2019,08,06,00,45,18.60
2019,08,06,00,46,18.50
2019,08,06,00,47,18.50
2019,08,06,00,48,18.40
2019,08,06,00,49,18.40
2019,08,06,00,50,18.40
2019,08,06,00,51,18.30
2019,08,06,00,52,18.30
2019,08,06,00,53,18.30
2019,08,06,00,54,18.20
2019,08,06,00,55,18.20
2019,08,06,00,56,18.10
2019,08,06,00,57,18.10
2019,08,06,00,58,18.10
2019,08,06,00,59,18.00
2019,08,06,01,00,18.00
2019,08,06,01,01,18.00
2019,08,06,01,02,17.90
2019,08,06,01,03,17.90
2019,08,06,01,04,17.90
2019,08,06,01,05,17.90
2019,08,06,01,06,17.80
2019,08,06,01,07,17.80
2019,08,06,01,08,17.80
2019,08,06,01,09,17.80
2019,08,06,01,10,17.80
2019,08,06,01,11,17.70
2019,08,06,01,12,17.70
2019,08,06,01,13,17.70
2019,08,06,01,14,17.70
2019,08,06,01,15,17.70
2019,08,06,01,16,17.70
2019,08,06,01,17,17.60
2019,08,06,01,18,17.60
2019,08,06,01,19,17.50
2019,08,06,01,20,17.50
2019,08,06,01,21,17.40
2019,08,06,01,22,17.40
2019,08,06,01,23,17.40
2019,08,06,01,24,17.40
2019,08,06,01,25,17.40
2019,08,06,01,26,17.40
2019,08,06,01,27,17.40
2019,08,06,01,28,17.40
2019,08,06,01,29,17.30
2019,08,06,01,30,17.30
2019,08,06,01,31,17.30
2019,08,06,01,32,17.30
2019,08,06,01,33,17.30
2019,08,06,01,34,17.30
2019,08,06,01,35,17.30
2019,08,06,01,36,17.30
2019,08,06,01,37,17.30
2019,08,06,01,38,17.30
2019,08,06,01,39,17.30
2019,08,06,01,40,17.30
2019,08,06,01,41,17.30
2019,08,06,01,42,17.30
2019,08,06,01,43,17.30
2019,08,06,01,44,17.20
2019,08,06,01,45,17.20
2019,08,06,01,46,17.20
2019,08,06,01,47,17.20
2019,08,06,01,48,17.10
2019,08,06,01,49,17.10
2019,08,06,01,50,17.10
2019,08,06,01,51,17.10
2019,08,06,01,52,17.10
2019,08,06,01,53,17.10
2019,08,06,01,54,17.00
2019,08,06,01,55,17.00
2019,08,06,01,56,17.00
2019,08,06,01,57,17.00
2019,08,06,01,58,17.00
2019,08,06,01,59,16.90
2019,08,06,02,00,16.90
2019,08,06,02,01,16.90
2019,08,06,02,02,16.90
2019,08,06,02,03,16.90
2019,08,06,02,04,16.90
2019,08,06,02,05,16.90
2019,08,06,02,06,16.90
2019,08,06,02,07,16.90
2019,08,06,02,08,16.90
2019,08,06,02,09,16.90
2019,08,06,02,10,16.90
2019,08,06,02,11,16.90
2019,08,06,02,12,16.90
2019,08,06,02,13,16.90
2019,08,06,02,14,16.80
2019,08,06,02,15,16.80
2019,08,06,02,16,16.80
2019,08,06,02,17,16.80
2019,08,06,02,18,16.80
2019,08,06,02,19,16.80
2019,08,06,02,20,16.80
2019,08,06,02,21,16.80
2019,08,06,02,22,16.80
2019,08,06,02,23,16.80
2019,08,06,02,24,16.70
2019,08,06,02,25,16.70
2019,08,06,02,26,16.70
2019,08,06,02,27,16.70
2019,08,06,02,28,16.60
2019,08,06,02,29,16.60
2019,08,06,02,30,16.60
2019,08,06,02,31,16.60
2019,08,06,02,32,16.60
2019,08,06,02,33,16.50
2019,08,06,02,34,16.50
2019,08,06,02,35,16.50
2019,08,06,02,36,16.50
2019,08,06,02,37,16.40
2019,08,06,02,38,16.40
2019,08,06,02,39,16.40
2019,08,06,02,40,16.40
2019,08,06,02,41,16.40
2019,08,06,02,42,16.40
2019,08,06,02,43,16.40
2019,08,06,02,44,16.40
2019,08,06,02,45,16.40
2019,08,06,02,46,16.40
2019,08,06,02,47,16.40
2019,08,06,02,48,16.40
2019,08,06,02,49,16.40
2019,08,06,02,50,16.40
2019,08,06,02,51,16.40
2019,08,06,02,52,16.40
2019,08,06,02,53,16.40
2019,08,06,02,54,16.40
2019,08,06,02,55,16.30
2019,08,06,02,56,16.30
2019,08,06,02,57,16.30
2019,08,06,02,58,16.30
2019,08,06,02,59,16.30
2019,08,06,03,00,16.30
2019,08,06,03,01,16.20
2019,08,06,03,02,16.20
2019,08,06,03,03,16.20
2019,08,06,03,04,16.20
2019,08,06,03,05,16.20
2019,08,06,03,06,16.10
2019,08,06,03,07,16.10
2019,08,06,03,08,16.10
2019,08,06,03,09,16.10
2019,08,06,03,10,16.00
2019,08,06,03,11,16.00
2019,08,06,03,12,16.00
2019,08,06,03,13,15.90
2019,08,06,03,14,15.90
2019,08,06,03,15,15.90
2019,08,06,03,16,15.90
2019,08,06,03,17,15.90
2019,08,06,03,18,15.90
2019,08,06,03,19,15.90
2019,08,06,03,20,15.90
2019,08,06,03,21,15.90
2019,08,06,03,22,15.90
2019,08,06,03,23,15.90
2019,08,06,03,24,15.80
2019,08,06,03,25,15.80
2019,08,06,03,26,15.80
2019,08,06,03,27,15.80
2019,08,06,03,28,15.80
2019,08,06,03,29,15.80
2019,08,06,03,30,15.80
2019,08,06,03,31,15.80
2019,08,06,03,32,15.80
2019,08,06,03,33,15.70
2019,08,06,03,34,15.70
2019,08,06,03,35,15.70
2019,08,06,03,36,15.70
2019,08,06,03,37,15.70
2019,08,06,03,38,15.70
2019,08,06,03,39,15.70
2019,08,06,03,40,15.70
2019,08,06,03,41,15.70
2019,08,06,03,42,15.70
2019,08,06,03,43,15.70
2019,08,06,03,44,15.60
2019,08,06,03,45,15.60
2019,08,06,03,46,15.60
2019,08,06,03,47,15.60
2019,08,06,03,48,15.60
2019,08,06,03,49,15.60
2019,08,06,03,50,15.60
2019,08,06,03,51,15.50
2019,08,06,03,52,15.50
2019,08,06,03,53,15.50
2019,08,06,03,54,15.40
2019,08,06,03,55,15.40
2019,08,06,03,56,15.40
2019,08,06,03,57,15.40
2019,08,06,03,58,15.40
2019,08,06,03,59,15.40
2019,08,06,04,00,15.30
2019,08,06,04,01,15.30
2019,08,06,04,02,15.30
2019,08,06,04,03,15.30
2019,08,06,04,04,15.30
2019,08,06,04,05,15.30
2019,08,06,04,06,15.30
2019,08,06,04,07,15.30
2019,08,06,04,08,15.30
2019,08,06,04,09,15.20
2019,08,06,04,10,15.20
2019,08,06,04,11,15.20
2019,08,06,04,12,15.20
2019,08,06,04,13,15.10
2019,08,06,04,14,15.10
2019,08,06,04,15,15.10
2019,08,06,04,16,15.00
2019,08,06,04,17,15.00
2019,08,06,04,18,15.00
2019,08,06,04,19,15.00
2019,08,06,04,20,14.90
2019,08,06,04,21,14.90
2019,08,06,04,22,14.90
2019,08,06,04,23,14.90
2019,08,06,04,24,14.90
2019,08,06,04,25,14.90
2019,08,06,04,26,14.90
2019,08,06,04,27,14.90
2019,08,06,04,28,15.00
2019,08,06,04,29,15.00
2019,08,06,04,30,15.00
2019,08,06,04,31,15.00
2019,08,06,04,32,15.00
2019,08,06,04,33,15.00
2019,08,06,04,34,15.00
2019,08,06,04,35,15.00
2019,08,06,04,36,15.00
2019,08,06,04,37,15.00
2019,08,06,04,38,15.00
2019,08,06,04,39,15.00
2019,08,06,04,40,15.00
2019,08,06,04,41,15.00
2019,08,06,04,42,15.00
2019,08,06,04,43,15.00
2019,08,06,04,44,15.00
2019,08,06,04,45,15.00
2019,08,06,04,46,15.00
2019,08,06,04,47,15.00
2019,08,06,04,48,14.90
2019,08,06,04,49,15.00
2019,08,06,04,50,14.90
2019,08,06,04,51,14.90
2019,08,06,04,52,14.90
2019,08,06,04,53,14.90
2019,08,06,04,54,14.90
2019,08,06,04,55,14.90
2019,08,06,04,56,15.00
2019,08,06,04,57,14.90
2019,08,06,04,58,14.90
2019,08,06,04,59,14.90
2019,08,06,05,00,14.90
2019,08,06,05,01,14.90
2019,08,06,05,02,14.90
2019,08,06,05,03,14.90
2019,08,06,05,04,14.90
2019,08,06,05,05,14.90
2019,08,06,05,06,14.90
2019,08,06,05,07,14.90
2019,08,06,05,08,14.80
2019,08,06,05,09,14.80
2019,08,06,05,10,14.80
2019,08,06,05,11,14.80
2019,08,06,05,12,14.80
2019,08,06,05,13,14.80
2019,08,06,05,14,14.80
2019,08,06,05,15,14.80
2019,08,06,05,16,14.80
2019,08,06,05,17,14.80
2019,08,06,05,18,14.70
2019,08,06,05,19,14.70
2019,08,06,05,20,14.70
2019,08,06,05,21,14.70
2019,08,06,05,22,14.70
2019,08,06,05,23,14.70
2019,08,06,05,24,14.70
2019,08,06,05,25,14.60
2019,08,06,05,26,14.60
2019,08,06,05,27,14.60
2019,08,06,05,28,14.60
2019,08,06,05,29,14.60
2019,08,06,05,30,14.60
2019,08,06,05,31,14.60
2019,08,06,05,32,14.60
2019,08,06,05,33,14.60
2019,08,06,05,34,14.50
2019,08,06,05,35,14.50
2019,08,06,05,36,14.50
2019,08,06,05,37,14.50
2019,08,06,05,38,14.50
2019,08,06,05,39,14.40
2019,08,06,05,40,14.40
2019,08,06,05,41,14.40
2019,08,06,05,42,14.40
2019,08,06,05,43,14.40
2019,08,06,05,44,14.30
2019,08,06,05,45,14.30
2019,08,06,05,46,14.30
2019,08,06,05,47,14.30
2019,08,06,05,48,14.30
2019,08,06,05,49,14.30
2019,08,06,05,50,14.20
2019,08,06,05,51,14.20
2019,08,06,05,52,14.20
2019,08,06,05,53,14.20
2019,08,06,05,54,14.20
2019,08,06,05,55,14.20
2019,08,06,05,56,14.20
2019,08,06,05,57,14.20
2019,08,06,05,58,14.30
2019,08,06,05,59,14.30
2019,08,06,06,00,14.30
2019,08,06,06,01,14.30
2019,08,06,06,02,14.30
2019,08,06,06,03,14.40
2019,08,06,06,04,14.40
2019,08,06,06,05,14.40
2019,08,06,06,06,14.40
2019,08,06,06,07,14.40
2019,08,06,06,08,14.40
2019,08,06,06,09,14.40
2019,08,06,06,10,14.40
2019,08,06,06,11,14.40
2019,08,06,06,12,14.40
2019,08,06,06,13,14.40
2019,08,06,06,14,14.40
2019,08,06,06,15,14.40
2019,08,06,06,16,14.40
2019,08,06,06,17,14.40
2019,08,06,06,18,14.40
2019,08,06,06,19,14.50
2019,08,06,06,20,14.50
2019,08,06,06,21,14.50
2019,08,06,06,22,14.50
2019,08,06,06,23,14.50
2019,08,06,06,24,14.60
2019,08,06,06,25,14.60
2019,08,06,06,26,14.60
2019,08,06,06,27,14.60
2019,08,06,06,28,14.60
2019,08,06,06,29,14.70
2019,08,06,06,30,14.70
2019,08,06,06,31,14.70
2019,08,06,06,32,14.70
2019,08,06,06,33,14.70
2019,08,06,06,34,14.70
2019,08,06,06,35,14.70
2019,08,06,06,36,14.80
2019,08,06,06,37,14.80
2019,08,06,06,38,14.80
2019,08,06,06,39,14.90
2019,08,06,06,40,14.90
2019,08,06,06,41,14.90
2019,08,06,06,42,15.00
2019,08,06,06,43,15.00
2019,08,06,06,44,15.10
2019,08,06,06,45,15.10
2019,08,06,06,46,15.10
2019,08,06,06,47,15.10
2019,08,06,06,48,15.20
2019,08,06,06,49,15.20
2019,08,06,06,50,15.20
2019,08,06,06,51,15.20
2019,08,06,06,52,15.30
2019,08,06,06,53,15.30
2019,08,06,06,54,15.40
2019,08,06,06,55,15.40
2019,08,06,06,56,15.50
2019,08,06,06,57,15.50
2019,08,06,06,58,15.60
2019,08,06,06,59,15.60
2019,08,06,07,00,15.70
2019,08,06,07,01,15.70
2019,08,06,07,02,15.70
2019,08,06,07,03,15.80
2019,08,06,07,04,15.80
2019,08,06,07,05,15.80
2019,08,06,07,06,15.90
2019,08,06,07,07,15.90
2019,08,06,07,08,16.00
2019,08,06,07,09,16.00
2019,08,06,07,10,16.10
2019,08,06,07,11,16.10
2019,08,06,07,12,16.20
2019,08,06,07,13,16.20
2019,08,06,07,14,16.20
2019,08,06,07,15,16.30
2019,08,06,07,16,16.30
2019,08,06,07,17,16.30
2019,08,06,07,18,16.30
2019,08,06,07,19,16.40
2019,08,06,07,20,16.40
2019,08,06,07,21,16.40
2019,08,06,07,22,16.50
2019,08,06,07,23,16.60
2019,08,06,07,24,16.60
2019,08,06,07,25,16.70
2019,08,06,07,26,16.80
2019,08,06,07,27,16.80
2019,08,06,07,28,16.80
2019,08,06,07,29,16.80
2019,08,06,07,30,16.90
2019,08,06,07,31,16.90
2019,08,06,07,32,16.90
2019,08,06,07,33,16.90
2019,08,06,07,34,16.90
2019,08,06,07,35,16.80
2019,08,06,07,36,16.80
2019,08,06,07,37,16.80
2019,08,06,07,38,16.70
2019,08,06,07,39,16.70
2019,08,06,07,40,16.60
2019,08,06,07,41,16.60
2019,08,06,07,42,16.60
2019,08,06,07,43,16.50
2019,08,06,07,44,16.50
2019,08,06,07,45,16.40
2019,08,06,07,46,16.40
2019,08,06,07,47,16.40
2019,08,06,07,48,16.30
2019,08,06,07,49,16.30
2019,08,06,07,50,16.30
2019,08,06,07,51,16.30
2019,08,06,07,52,16.40
2019,08,06,07,53,16.40
2019,08,06,07,54,16.50
2019,08,06,07,55,16.50
2019,08,06,07,56,16.60
2019,08,06,07,57,16.70
2019,08,06,07,58,16.70
2019,08,06,07,59,16.80
2019,08,06,08,00,16.80
2019,08,06,08,01,16.90
2019,08,06,08,02,17.00
2019,08,06,08,03,17.00
2019,08,06,08,04,17.10
2019,08,06,08,05,17.10
2019,08,06,08,06,17.20
2019,08,06,08,07,17.20
2019,08,06,08,08,17.30
2019,08,06,08,09,17.30
2019,08,06,08,10,17.30
2019,08,06,08,11,17.40
2019,08,06,08,12,17.40
2019,08,06,08,13,17.40
2019,08,06,08,14,17.40
2019,08,06,08,15,17.50
2019,08,06,08,16,17.50
2019,08,06,08,17,17.60
2019,08,06,08,18,17.70
2019,08,06,08,19,17.70
2019,08,06,08,20,17.80
2019,08,06,08,21,17.80
2019,08,06,08,22,17.90
2019,08,06,08,23,17.90
2019,08,06,08,24,17.90
2019,08,06,08,25,17.90
2019,08,06,08,26,17.90
2019,08,06,08,27,18.00
2019,08,06,08,28,18.00
2019,08,06,08,29,18.00
2019,08,06,08,30,18.00
2019,08,06,08,31,18.00
2019,08,06,08,32,18.00
2019,08,06,08,33,18.10
2019,08,06,08,34,18.10
2019,08,06,08,35,18.10
2019,08,06,08,36,18.20
2019,08,06,08,37,18.20
2019,08,06,08,38,18.30
2019,08,06,08,39,18.30
2019,08,06,08,40,18.30
2019,08,06,08,41,18.30
2019,08,06,08,42,18.30
2019,08,06,08,43,18.30
2019,08,06,08,44,18.30
2019,08,06,08,45,18.30
2019,08,06,08,46,18.20
2019,08,06,08,47,18.20
2019,08,06,08,48,18.10
2019,08,06,08,49,18.00
2019,08,06,08,50,17.90
2019,08,06,08,51,17.80
2019,08,06,08,52,17.80
2019,08,06,08,53,17.80
2019,08,06,08,54,17.70
2019,08,06,08,55,17.60
2019,08,06,08,56,17.60
2019,08,06,08,57,17.50
2019,08,06,08,58,17.50
2019,08,06,08,59,17.40
2019,08,06,09,00,17.30
2019,08,06,09,01,17.20
2019,08,06,09,02,17.10
2019,08,06,09,03,17.00
2019,08,06,09,04,16.90
2019,08,06,09,05,16.80
2019,08,06,09,06,16.70
2019,08,06,09,07,16.60
2019,08,06,09,08,16.60
2019,08,06,09,09,16.60
2019,08,06,09,10,16.60
2019,08,06,09,11,16.60
2019,08,06,09,12,16.70
2019,08,06,09,13,16.80
2019,08,06,09,14,16.80
2019,08,06,09,15,16.90
2019,08,06,09,16,17.00
2019,08,06,09,17,17.10
2019,08,06,09,18,17.20
2019,08,06,09,19,17.30
2019,08,06,09,20,17.40
2019,08,06,09,21,17.40
2019,08,06,09,22,17.50
2019,08,06,09,23,17.50
2019,08,06,09,24,17.60
2019,08,06,09,25,17.60
2019,08,06,09,26,17.70
2019,08,06,09,27,17.70
2019,08,06,09,28,17.70
2019,08,06,09,29,17.70
2019,08,06,09,30,17.60
2019,08,06,09,31,17.60
2019,08,06,09,32,17.60
2019,08,06,09,33,17.50
2019,08,06,09,34,17.50
2019,08,06,09,35,17.50
2019,08,06,09,36,17.50
2019,08,06,09,37,17.60
2019,08,06,09,38,17.60
2019,08,06,09,39,17.60
2019,08,06,09,40,17.60
2019,08,06,09,41,17.70
2019,08,06,09,42,17.70
2019,08,06,09,43,17.60
2019,08,06,09,44,17.60
2019,08,06,09,45,17.60
2019,08,06,09,46,17.60
2019,08,06,09,47,17.50
2019,08,06,09,48,17.40
2019,08,06,09,49,17.40
2019,08,06,09,50,17.30
2019,08,06,09,51,17.20
2019,08,06,09,52,17.10
2019,08,06,09,53,17.10
2019,08,06,09,54,17.10
2019,08,06,09,55,17.10
2019,08,06,09,56,17.10
2019,08,06,09,57,17.10
2019,08,06,09,58,17.00
2019,08,06,09,59,16.90
2019,08,06,10,00,16.80
2019,08,06,10,01,16.80
2019,08,06,10,02,16.80
2019,08,06,10,03,16.70
2019,08,06,10,04,16.60
2019,08,06,10,05,16.50
2019,08,06,10,06,16.50
2019,08,06,10,07,16.40
2019,08,06,10,08,16.40
2019,08,06,10,09,16.40
2019,08,06,10,10,16.40
2019,08,06,10,11,16.40
2019,08,06,10,12,16.40
2019,08,06,10,13,16.40
2019,08,06,10,14,16.40
2019,08,06,10,15,16.50
2019,08,06,10,16,16.60
2019,08,06,10,17,16.60
2019,08,06,10,18,16.60
2019,08,06,10,19,16.70
2019,08,06,10,20,16.70
2019,08,06,10,21,16.70
2019,08,06,10,22,16.80
2019,08,06,10,23,16.80
2019,08,06,10,24,16.90
2019,08,06,10,25,16.90
2019,08,06,10,26,17.00
2019,08,06,10,27,17.10
2019,08,06,10,28,17.30
2019,08,06,10,29,17.40
2019,08,06,10,30,17.50
2019,08,06,10,31,17.60
2019,08,06,10,32,17.70
2019,08,06,10,33,17.80
2019,08,06,10,34,17.90
2019,08,06,10,35,17.90
2019,08,06,10,36,18.00
2019,08,06,10,37,18.10
2019,08,06,10,38,18.10
2019,08,06,10,39,18.10
2019,08,06,10,40,18.10
2019,08,06,10,41,18.10
2019,08,06,10,42,18.00
2019,08,06,10,43,18.00
2019,08,06,10,44,18.10
2019,08,06,10,45,18.10
2019,08,06,10,46,18.10
2019,08,06,10,47,18.00
2019,08,06,10,48,18.00
2019,08,06,10,49,18.00
2019,08,06,10,50,18.00
2019,08,06,10,51,18.10
2019,08,06,10,52,18.20
2019,08,06,10,53,18.30
2019,08,06,10,54,18.40
2019,08,06,10,55,18.50
2019,08,06,10,56,18.60
2019,08,06,10,57,18.60
2019,08,06,10,58,18.50
2019,08,06,10,59,18.50
2019,08,06,11,00,18.30
2019,08,06,11,01,18.20
2019,08,06,11,02,18.10
2019,08,06,11,03,18.10
2019,08,06,11,04,18.00
2019,08,06,11,05,18.00
2019,08,06,11,06,17.90
2019,08,06,11,07,17.80
2019,08,06,11,08,17.80
2019,08,06,11,09,17.80
2019,08,06,11,10,17.70
2019,08,06,11,11,17.70
2019,08,06,11,12,17.80
2019,08,06,11,13,17.80
2019,08,06,11,14,17.80
2019,08,06,11,15,17.80
2019,08,06,11,16,17.80
2019,08,06,11,17,17.70
2019,08,06,11,18,17.80
2019,08,06,11,19,17.90
2019,08,06,11,20,18.00
2019,08,06,11,21,18.10
2019,08,06,11,22,18.20
2019,08,06,11,23,18.40
2019,08,06,11,24,18.60
2019,08,06,11,25,18.70
2019,08,06,11,26,18.90
2019,08,06,11,27,19.10
2019,08,06,11,28,19.30
2019,08,06,11,29,19.40
2019,08,06,11,30,19.60
2019,08,06,11,31,19.70
2019,08,06,11,32,19.80
2019,08,06,11,33,19.80
2019,08,06,11,34,19.90
2019,08,06,11,35,20.00
2019,08,06,11,36,20.00
2019,08,06,11,37,20.10
2019,08,06,11,38,20.10
2019,08,06,11,39,20.20
2019,08,06,11,40,20.30
2019,08,06,11,41,20.30
2019,08,06,11,42,20.50
2019,08,06,11,43,20.60
2019,08,06,11,44,20.70
2019,08,06,11,45,20.70
2019,08,06,11,46,20.70
2019,08,06,11,47,20.80
2019,08,06,11,48,20.80
2019,08,06,11,49,20.90
2019,08,06,11,50,21.00
2019,08,06,11,51,21.10
2019,08,06,11,52,21.10
2019,08,06,11,53,21.20
2019,08,06,11,54,21.30
2019,08,06,11,55,21.40
2019,08,06,11,56,21.50
2019,08,06,11,57,21.60
2019,08,06,11,58,21.70
2019,08,06,11,59,21.80
2019,08,06,12,00,21.80
2019,08,06,12,01,21.80
2019,08,06,12,02,21.80
2019,08,06,12,03,21.70
2019,08,06,12,04,21.60
2019,08,06,12,05,21.50
2019,08,06,12,06,21.30
2019,08,06,12,07,21.30
2019,08,06,12,08,21.30
2019,08,06,12,09,21.30
2019,08,06,12,10,21.30
2019,08,06,12,11,21.20
2019,08,06,12,12,21.20
2019,08,06,12,13,21.30
2019,08,06,12,14,21.30
2019,08,06,12,15,21.40
2019,08,06,12,16,21.40
2019,08,06,12,17,21.40
2019,08,06,12,18,21.30
2019,08,06,12,19,21.20
2019,08,06,12,20,21.10
2019,08,06,12,21,21.00
2019,08,06,12,22,20.80
2019,08,06,12,23,20.70
2019,08,06,12,24,20.60
2019,08,06,12,25,20.60
2019,08,06,12,26,20.50
2019,08,06,12,27,20.50
2019,08,06,12,28,20.50
2019,08,06,12,29,20.40
2019,08,06,12,30,20.40
2019,08,06,12,31,20.40
2019,08,06,12,32,20.30
2019,08,06,12,33,20.20
2019,08,06,12,34,20.20
2019,08,06,12,35,20.20
2019,08,06,12,36,20.20
2019,08,06,12,37,20.20
2019,08,06,12,38,20.20
2019,08,06,12,39,20.30
2019,08,06,12,40,20.30
2019,08,06,12,41,20.40
2019,08,06,12,42,20.50
2019,08,06,12,43,20.60
2019,08,06,12,44,20.70
2019,08,06,12,45,20.80
2019,08,06,12,46,20.80
2019,08,06,12,47,20.80
2019,08,06,12,48,20.80
2019,08,06,12,49,20.80
2019,08,06,12,50,20.90
2019,08,06,12,51,21.00
2019,08,06,12,52,21.10
2019,08,06,12,53,21.10
2019,08,06,12,54,21.20
2019,08,06,12,55,21.30
2019,08,06,12,56,21.50
2019,08,06,12,57,21.60
2019,08,06,12,58,21.60
2019,08,06,12,59,21.60
2019,08,06,13,00,21.60
2019,08,06,13,01,21.60
2019,08,06,13,02,21.60
2019,08,06,13,03,21.60
2019,08,06,13,04,21.60
2019,08,06,13,05,21.60
2019,08,06,13,06,21.70
2019,08,06,13,07,21.80
2019,08,06,13,08,21.90
2019,08,06,13,09,22.10
2019,08,06,13,10,22.20
2019,08,06,13,11,22.30
2019,08,06,13,12,22.40
2019,08,06,13,13,22.50
2019,08,06,13,14,22.60
2019,08,06,13,15,22.60
2019,08,06,13,16,22.60
2019,08,06,13,17,22.70
2019,08,06,13,18,22.70
2019,08,06,13,19,22.80
2019,08,06,13,20,22.80
2019,08,06,13,21,22.80
2019,08,06,13,22,22.90
2019,08,06,13,23,22.90
2019,08,06,13,24,22.90
2019,08,06,13,25,23.00
2019,08,06,13,26,23.00
2019,08,06,13,27,23.00
2019,08,06,13,28,23.00
2019,08,06,13,29,23.10
2019,08,06,13,30,23.10
2019,08,06,13,31,23.20
2019,08,06,13,32,23.20
2019,08,06,13,33,23.20
2019,08,06,13,34,23.20
2019,08,06,13,35,23.30
2019,08,06,13,36,23.30
2019,08,06,13,37,23.20
2019,08,06,13,38,23.20
2019,08,06,13,39,23.20
2019,08,06,13,40,23.20
2019,08,06,13,41,23.10
2019,08,06,13,42,23.00
2019,08,06,13,43,22.90
2019,08,06,13,44,22.70
2019,08,06,13,45,22.60
2019,08,06,13,46,22.50
2019,08,06,13,47,22.40
2019,08,06,13,48,22.40
2019,08,06,13,49,22.30
2019,08,06,13,50,22.40
2019,08,06,13,51,22.40
2019,08,06,13,52,22.40
2019,08,06,13,53,22.50
2019,08,06,13,54,22.50
2019,08,06,13,55,22.60
2019,08,06,13,56,22.60
2019,08,06,13,57,22.70
2019,08,06,13,58,22.70
2019,08,06,13,59,22.70
2019,08,06,14,00,22.70
2019,08,06,14,01,22.70
2019,08,06,14,02,22.70
2019,08,06,14,03,22.60
2019,08,06,14,04,22.60
2019,08,06,14,05,22.50
2019,08,06,14,06,22.40
2019,08,06,14,07,22.40
2019,08,06,14,08,22.40
2019,08,06,14,09,22.50
2019,08,06,14,10,22.50
2019,08,06,14,11,22.40
2019,08,06,14,12,22.40
2019,08,06,14,13,22.40
2019,08,06,14,14,22.30
2019,08,06,14,15,22.30
2019,08,06,14,16,22.30
2019,08,06,14,17,22.30
2019,08,06,14,18,22.20
2019,08,06,14,19,22.20
2019,08,06,14,20,22.20
2019,08,06,14,21,22.20
2019,08,06,14,22,22.20
2019,08,06,14,23,22.20
2019,08,06,14,24,22.20
2019,08,06,14,25,22.20
2019,08,06,14,26,22.20
2019,08,06,14,27,22.20
2019,08,06,14,28,22.20
2019,08,06,14,29,22.20
2019,08,06,14,30,22.10
2019,08,06,14,31,22.10
2019,08,06,14,32,22.00
2019,08,06,14,33,22.00
2019,08,06,14,34,21.90
2019,08,06,14,35,21.90
2019,08,06,14,36,21.90
2019,08,06,14,37,21.90
2019,08,06,14,38,21.90
2019,08,06,14,39,21.80
2019,08,06,14,40,21.80
2019,08,06,14,41,21.70
2019,08,06,14,42,21.70
2019,08,06,14,43,21.70
2019,08,06,14,44,21.70
2019,08,06,14,45,21.70
2019,08,06,14,46,21.70
2019,08,06,14,47,21.70
2019,08,06,14,48,21.60
2019,08,06,14,49,21.60
2019,08,06,14,50,21.60
2019,08,06,14,51,21.60
2019,08,06,14,52,21.60
2019,08,06,14,53,21.70
2019,08,06,14,54,21.70
2019,08,06,14,55,21.60
2019,08,06,14,56,21.60
2019,08,06,14,57,21.60
2019,08,06,14,58,21.60
2019,08,06,14,59,21.60
2019,08,06,15,00,21.60
2019,08,06,15,01,21.60
2019,08,06,15,02,21.60
2019,08,06,15,03,21.70
2019,08,06,15,04,21.80
2019,08,06,15,05,21.80
2019,08,06,15,06,21.80
2019,08,06,15,07,21.80
2019,08,06,15,08,21.90
2019,08,06,15,09,22.00
2019,08,06,15,10,22.00
2019,08,06,15,11,22.10
2019,08,06,15,12,22.20
2019,08,06,15,13,22.30
2019,08,06,15,14,22.30
2019,08,06,15,15,22.30
2019,08,06,15,16,22.40
2019,08,06,15,17,22.50
2019,08,06,15,18,22.40
2019,08,06,15,19,22.50
2019,08,06,15,20,22.50
2019,08,06,15,21,22.60
2019,08,06,15,22,22.60
2019,08,06,15,23,22.70
2019,08,06,15,24,22.70
2019,08,06,15,25,22.60
2019,08,06,15,26,22.70
2019,08,06,15,27,22.70
2019,08,06,15,28,22.80
2019,08,06,15,29,22.80
2019,08,06,15,30,22.90
2019,08,06,15,31,22.90
2019,08,06,15,32,22.80
2019,08,06,15,33,22.70
2019,08,06,15,34,22.70
2019,08,06,15,35,22.70
2019,08,06,15,36,22.70
2019,08,06,15,37,22.60
2019,08,06,15,38,22.60
2019,08,06,15,39,22.50
2019,08,06,15,40,22.50
2019,08,06,15,41,22.50
2019,08,06,15,42,22.60
2019,08,06,15,43,22.60
2019,08,06,15,44,22.60
2019,08,06,15,45,22.60
2019,08,06,15,46,22.60
2019,08,06,15,47,22.60
2019,08,06,15,48,22.60
2019,08,06,15,49,22.60
2019,08,06,15,50,22.60
2019,08,06,15,51,22.70
2019,08,06,15,52,22.80
2019,08,06,15,53,22.80
2019,08,06,15,54,22.90
2019,08,06,15,55,22.90
2019,08,06,15,56,22.90
2019,08,06,15,57,22.90
2019,08,06,15,58,22.90
2019,08,06,15,59,23.00
2019,08,06,16,00,23.10
2019,08,06,16,01,23.10
2019,08,06,16,02,23.20
2019,08,06,16,03,23.20
2019,08,06,16,04,23.30
2019,08,06,16,05,23.30
2019,08,06,16,06,23.30
2019,08,06,16,07,23.30
2019,08,06,16,08,23.30
2019,08,06,16,09,23.30
2019,08,06,16,10,23.30
2019,08,06,16,11,23.40
2019,08,06,16,12,23.50
2019,08,06,16,13,23.60
2019,08,06,16,14,23.70
2019,08,06,16,15,23.80
2019,08,06,16,16,23.80
2019,08,06,16,17,23.80
2019,08,06,16,18,23.80
2019,08,06,16,19,23.70
2019,08,06,16,20,23.60
2019,08,06,16,21,23.50
2019,08,06,16,22,23.50
2019,08,06,16,23,23.40
2019,08,06,16,24,23.40
2019,08,06,16,25,23.40
2019,08,06,16,26,23.30
2019,08,06,16,27,23.40
2019,08,06,16,28,23.40
2019,08,06,16,29,23.40
2019,08,06,16,30,23.50
2019,08,06,16,31,23.60
2019,08,06,16,32,23.70
2019,08,06,16,33,23.80
2019,08,06,16,34,23.80
2019,08,06,16,35,23.90
2019,08,06,16,36,24.00
2019,08,06,16,37,24.10
2019,08,06,16,38,24.10
2019,08,06,16,39,24.20
2019,08,06,16,40,24.30
2019,08,06,16,41,24.40
2019,08,06,16,42,24.50
2019,08,06,16,43,24.50
2019,08,06,16,44,24.50
2019,08,06,16,45,24.50
2019,08,06,16,46,24.50
2019,08,06,16,47,24.50
2019,08,06,16,48,24.50
2019,08,06,16,49,24.50
2019,08,06,16,50,24.50
2019,08,06,16,51,24.50
2019,08,06,16,52,24.50
2019,08,06,16,53,24.60
2019,08,06,16,54,24.60
2019,08,06,16,55,24.70
2019,08,06,16,56,24.70
2019,08,06,16,57,24.70
2019,08,06,16,58,24.80
2019,08,06,16,59,24.80
2019,08,06,17,00,24.90
2019,08,06,17,01,25.00
2019,08,06,17,02,25.00
2019,08,06,17,03,25.10
2019,08,06,17,04,25.20
2019,08,06,17,05,25.30
2019,08,06,17,06,25.40
2019,08,06,17,07,25.50
2019,08,06,17,08,25.50
2019,08,06,17,09,25.60
2019,08,06,17,10,25.70
2019,08,06,17,11,25.80
2019,08,06,17,12,26.00
2019,08,06,17,13,26.10
2019,08,06,17,14,26.20
2019,08,06,17,15,26.30
2019,08,06,17,16,26.40
2019,08,06,17,17,26.50
2019,08,06,17,18,26.50
2019,08,06,17,19,26.60